Location: Poprad
(49.0500°N, 20.3000°E)
Time: 08:33:35
(UTC+02:00)

ISS - Pass Details

Date: 01 April 2019
Orbit: 408 x 410 km, 51.6° (Epoch: 25 April)

Event Time Altitude Azimuth Distance (km) Brightness Sun altitude
Rises 20:10:29 0° 285° (WNW) 2,337 2.3 -10.5°
Reaches altitude 10° 20:12:35 10° 289° (WNW) 1,475 0.6 -10.9°
Maximum altitude 20:15:52 60° 11° (N) 473 -3.5 -11.4°
Enters shadow 20:18:09 18° 88° (E) 1,088 -2.2 -11.7°
